Year,Month,Day,Hour,Minute,Value (Times are PST for temperature in C)
2010,05,17,00,00,9.60
2010,05,17,00,01,9.50
2010,05,17,00,02,9.50
2010,05,17,00,03,9.50
2010,05,17,00,04,9.50
2010,05,17,00,05,9.50
2010,05,17,00,06,9.50
2010,05,17,00,07,9.50
2010,05,17,00,08,9.40
2010,05,17,00,09,9.40
2010,05,17,00,10,9.40
2010,05,17,00,11,9.40
2010,05,17,00,12,9.40
2010,05,17,00,13,9.40
2010,05,17,00,14,9.40
2010,05,17,00,15,9.40
2010,05,17,00,16,9.40
2010,05,17,00,17,9.40
2010,05,17,00,18,9.40
2010,05,17,00,19,9.40
2010,05,17,00,20,9.40
2010,05,17,00,21,9.40
2010,05,17,00,22,9.30
2010,05,17,00,23,9.30
2010,05,17,00,24,9.30
2010,05,17,00,25,9.30
2010,05,17,00,26,9.30
2010,05,17,00,27,9.30
2010,05,17,00,28,9.30
2010,05,17,00,29,9.30
2010,05,17,00,30,9.20
2010,05,17,00,31,9.20
2010,05,17,00,32,9.20
2010,05,17,00,33,9.20
2010,05,17,00,34,9.20
2010,05,17,00,35,9.20
2010,05,17,00,36,9.20
2010,05,17,00,37,9.20
2010,05,17,00,38,9.20
2010,05,17,00,39,9.20
2010,05,17,00,40,9.20
2010,05,17,00,41,9.20
2010,05,17,00,42,9.20
2010,05,17,00,43,9.20
2010,05,17,00,44,9.20
2010,05,17,00,45,9.30
2010,05,17,00,46,9.30
2010,05,17,00,47,9.30
2010,05,17,00,48,9.30
2010,05,17,00,49,9.30
2010,05,17,00,50,9.40
2010,05,17,00,51,9.40
2010,05,17,00,52,9.40
2010,05,17,00,53,9.40
2010,05,17,00,54,9.30
2010,05,17,00,55,9.30
2010,05,17,00,56,9.30
2010,05,17,00,57,9.30
2010,05,17,00,58,9.30
2010,05,17,00,59,9.30
2010,05,17,01,00,9.30
2010,05,17,01,01,9.20
2010,05,17,01,02,9.20
2010,05,17,01,03,9.20
2010,05,17,01,04,9.20
2010,05,17,01,05,9.20
2010,05,17,01,06,9.10
2010,05,17,01,07,9.10
2010,05,17,01,08,9.10
2010,05,17,01,09,9.10
2010,05,17,01,10,9.00
2010,05,17,01,11,9.00
2010,05,17,01,12,9.00
2010,05,17,01,13,8.90
2010,05,17,01,14,8.90
2010,05,17,01,15,8.90
2010,05,17,01,16,8.90
2010,05,17,01,17,8.90
2010,05,17,01,18,8.90
2010,05,17,01,19,8.80
2010,05,17,01,20,8.80
2010,05,17,01,21,8.80
2010,05,17,01,22,8.80
2010,05,17,01,23,8.80
2010,05,17,01,24,8.80
2010,05,17,01,25,8.80
2010,05,17,01,26,8.80
2010,05,17,01,27,8.80
2010,05,17,01,28,8.80
2010,05,17,01,29,8.70
2010,05,17,01,30,8.70
2010,05,17,01,31,8.70
2010,05,17,01,32,8.70
2010,05,17,01,33,8.70
2010,05,17,01,34,8.70
2010,05,17,01,35,8.70
2010,05,17,01,36,8.70
2010,05,17,01,37,8.70
2010,05,17,01,38,8.70
2010,05,17,01,39,8.70
2010,05,17,01,40,8.70
2010,05,17,01,41,8.70
2010,05,17,01,42,8.70
2010,05,17,01,43,8.70
2010,05,17,01,44,8.70
2010,05,17,01,45,8.60
2010,05,17,01,46,8.60
2010,05,17,01,47,8.60
2010,05,17,01,48,8.60
2010,05,17,01,49,8.60
2010,05,17,01,50,8.60
2010,05,17,01,51,8.60
2010,05,17,01,52,8.60
2010,05,17,01,53,8.60
2010,05,17,01,54,8.60
2010,05,17,01,55,8.60
2010,05,17,01,56,8.60
2010,05,17,01,57,8.50
2010,05,17,01,58,8.50
2010,05,17,01,59,8.50
2010,05,17,02,00,8.50
2010,05,17,02,01,8.50
2010,05,17,02,02,8.50
2010,05,17,02,03,8.50
2010,05,17,02,04,8.50
2010,05,17,02,05,8.40
2010,05,17,02,06,8.40
2010,05,17,02,07,8.40
2010,05,17,02,08,8.40
2010,05,17,02,09,8.40
2010,05,17,02,10,8.40
2010,05,17,02,11,8.40
2010,05,17,02,12,8.40
2010,05,17,02,13,8.40
2010,05,17,02,14,8.40
2010,05,17,02,15,8.50
2010,05,17,02,16,8.50
2010,05,17,02,17,8.50
2010,05,17,02,18,8.50
2010,05,17,02,19,8.60
2010,05,17,02,20,8.60
2010,05,17,02,21,8.60
2010,05,17,02,22,8.60
2010,05,17,02,23,8.50
2010,05,17,02,24,8.50
2010,05,17,02,25,8.50
2010,05,17,02,26,8.40
2010,05,17,02,27,8.40
2010,05,17,02,28,8.40
2010,05,17,02,29,8.40
2010,05,17,02,30,8.40
2010,05,17,02,31,8.30
2010,05,17,02,32,8.30
2010,05,17,02,33,8.30
2010,05,17,02,34,8.30
2010,05,17,02,35,8.30
2010,05,17,02,36,8.30
2010,05,17,02,37,8.30
2010,05,17,02,38,8.20
2010,05,17,02,39,8.20
2010,05,17,02,40,8.20
2010,05,17,02,41,8.20
2010,05,17,02,42,8.20
2010,05,17,02,43,8.20
2010,05,17,02,44,8.20
2010,05,17,02,45,8.20
2010,05,17,02,46,8.20
2010,05,17,02,47,8.20
2010,05,17,02,48,8.20
2010,05,17,02,49,8.10
2010,05,17,02,50,8.10
2010,05,17,02,51,8.10
2010,05,17,02,52,8.10
2010,05,17,02,53,8.10
2010,05,17,02,54,8.10
2010,05,17,02,55,8.10
2010,05,17,02,56,8.10
2010,05,17,02,57,8.10
2010,05,17,02,58,8.10
2010,05,17,02,59,8.10
2010,05,17,03,00,8.10
2010,05,17,03,01,8.10
2010,05,17,03,02,8.10
2010,05,17,03,03,8.10
2010,05,17,03,04,8.10
2010,05,17,03,05,8.10
2010,05,17,03,06,8.10
2010,05,17,03,07,8.10
2010,05,17,03,08,8.10
2010,05,17,03,09,8.10
2010,05,17,03,10,8.00
2010,05,17,03,11,8.00
2010,05,17,03,12,8.10
2010,05,17,03,13,8.10
2010,05,17,03,14,8.10
2010,05,17,03,15,8.10
2010,05,17,03,16,8.10
2010,05,17,03,17,8.10
2010,05,17,03,18,8.10
2010,05,17,03,19,8.00
2010,05,17,03,20,8.00
2010,05,17,03,21,8.00
2010,05,17,03,22,8.00
2010,05,17,03,23,8.00
2010,05,17,03,24,8.00
2010,05,17,03,25,8.00
2010,05,17,03,26,8.00
2010,05,17,03,27,7.90
2010,05,17,03,28,7.90
2010,05,17,03,29,7.90
2010,05,17,03,30,7.90
2010,05,17,03,31,7.90
2010,05,17,03,32,7.90
2010,05,17,03,33,7.90
2010,05,17,03,34,7.90
2010,05,17,03,35,7.90
2010,05,17,03,36,7.90
2010,05,17,03,37,7.80
2010,05,17,03,38,7.80
2010,05,17,03,39,7.80
2010,05,17,03,40,7.80
2010,05,17,03,41,7.80
2010,05,17,03,42,7.80
2010,05,17,03,43,7.80
2010,05,17,03,44,7.80
2010,05,17,03,45,7.80
2010,05,17,03,46,7.90
2010,05,17,03,47,7.90
2010,05,17,03,48,7.90
2010,05,17,03,49,7.90
2010,05,17,03,50,7.90
2010,05,17,03,51,8.00
2010,05,17,03,52,8.00
2010,05,17,03,53,8.00
2010,05,17,03,54,8.00
2010,05,17,03,55,8.00
2010,05,17,03,56,8.10
2010,05,17,03,57,8.10
2010,05,17,03,58,8.10
2010,05,17,03,59,8.10
2010,05,17,04,00,8.10
2010,05,17,04,01,8.10
2010,05,17,04,02,8.10
2010,05,17,04,03,8.10
2010,05,17,04,04,8.10
2010,05,17,04,05,8.10
2010,05,17,04,06,8.10
2010,05,17,04,07,8.10
2010,05,17,04,08,8.10
2010,05,17,04,09,8.10
2010,05,17,04,10,8.10
2010,05,17,04,11,8.10
2010,05,17,04,12,8.10
2010,05,17,04,13,8.10
2010,05,17,04,14,8.10
2010,05,17,04,15,8.10
2010,05,17,04,16,8.10
2010,05,17,04,17,8.10
2010,05,17,04,18,8.10
2010,05,17,04,19,8.10
2010,05,17,04,20,8.10
2010,05,17,04,21,8.10
2010,05,17,04,22,8.20
2010,05,17,04,23,8.20
2010,05,17,04,24,8.30
2010,05,17,04,25,8.30
2010,05,17,04,26,8.30
2010,05,17,04,27,8.30
2010,05,17,04,28,8.30
2010,05,17,04,29,8.30
2010,05,17,04,30,8.30
2010,05,17,04,31,8.30
2010,05,17,04,32,8.30
2010,05,17,04,33,8.30
2010,05,17,04,34,8.30
2010,05,17,04,35,8.30
2010,05,17,04,36,8.30
2010,05,17,04,37,8.30
2010,05,17,04,38,8.20
2010,05,17,04,39,8.20
2010,05,17,04,40,8.20
2010,05,17,04,41,8.20
2010,05,17,04,42,8.20
2010,05,17,04,43,8.20
2010,05,17,04,44,8.20
2010,05,17,04,45,8.20
2010,05,17,04,46,8.20
2010,05,17,04,47,8.20
2010,05,17,04,48,8.20
2010,05,17,04,49,8.20
2010,05,17,04,50,8.20
2010,05,17,04,51,8.20
2010,05,17,04,52,8.10
2010,05,17,04,53,8.10
2010,05,17,04,54,8.10
2010,05,17,04,55,8.10
2010,05,17,04,56,8.10
2010,05,17,04,57,8.00
2010,05,17,04,58,8.00
2010,05,17,04,59,8.00
2010,05,17,05,00,8.00
2010,05,17,05,01,8.00
2010,05,17,05,02,8.00
2010,05,17,05,03,8.00
2010,05,17,05,04,8.00
2010,05,17,05,05,7.90
2010,05,17,05,06,7.90
2010,05,17,05,07,7.90
2010,05,17,05,08,7.90
2010,05,17,05,09,7.90
2010,05,17,05,10,7.90
2010,05,17,05,11,7.90
2010,05,17,05,12,7.90
2010,05,17,05,13,7.90
2010,05,17,05,14,7.90
2010,05,17,05,15,7.90
2010,05,17,05,16,7.90
2010,05,17,05,17,8.00
2010,05,17,05,18,8.00
2010,05,17,05,19,8.00
2010,05,17,05,20,8.10
2010,05,17,05,21,8.10
2010,05,17,05,22,8.10
2010,05,17,05,23,8.20
2010,05,17,05,24,8.20
2010,05,17,05,25,8.20
2010,05,17,05,26,8.20
2010,05,17,05,27,8.20
2010,05,17,05,28,8.20
2010,05,17,05,29,8.20
2010,05,17,05,30,8.20
2010,05,17,05,31,8.20
2010,05,17,05,32,8.20
2010,05,17,05,33,8.20
2010,05,17,05,34,8.20
2010,05,17,05,35,8.20
2010,05,17,05,36,8.30
2010,05,17,05,37,8.30
2010,05,17,05,38,8.30
2010,05,17,05,39,8.30
2010,05,17,05,40,8.40
2010,05,17,05,41,8.40
2010,05,17,05,42,8.40
2010,05,17,05,43,8.50
2010,05,17,05,44,8.50
2010,05,17,05,45,8.60
2010,05,17,05,46,8.60
2010,05,17,05,47,8.60
2010,05,17,05,48,8.70
2010,05,17,05,49,8.70
2010,05,17,05,50,8.70
2010,05,17,05,51,8.70
2010,05,17,05,52,8.70
2010,05,17,05,53,8.70
2010,05,17,05,54,8.70
2010,05,17,05,55,8.70
2010,05,17,05,56,8.70
2010,05,17,05,57,8.70
2010,05,17,05,58,8.60
2010,05,17,05,59,8.60
2010,05,17,06,00,8.60
2010,05,17,06,01,8.60
2010,05,17,06,02,8.60
2010,05,17,06,03,8.60
2010,05,17,06,04,8.60
2010,05,17,06,05,8.60
2010,05,17,06,06,8.70
2010,05,17,06,07,8.70
2010,05,17,06,08,8.70
2010,05,17,06,09,8.70
2010,05,17,06,10,8.70
2010,05,17,06,11,8.70
2010,05,17,06,12,8.70
2010,05,17,06,13,8.80
2010,05,17,06,14,8.80
2010,05,17,06,15,8.80
2010,05,17,06,16,8.80
2010,05,17,06,17,8.80
2010,05,17,06,18,8.80
2010,05,17,06,19,8.80
2010,05,17,06,20,8.80
2010,05,17,06,21,8.80
2010,05,17,06,22,8.80
2010,05,17,06,23,8.80
2010,05,17,06,24,8.80
2010,05,17,06,25,8.80
2010,05,17,06,26,8.80
2010,05,17,06,27,8.80
2010,05,17,06,28,8.80
2010,05,17,06,29,8.80
2010,05,17,06,30,8.80
2010,05,17,06,31,8.80
2010,05,17,06,32,8.80
2010,05,17,06,33,8.80
2010,05,17,06,34,8.80
2010,05,17,06,35,8.80
2010,05,17,06,36,8.80
2010,05,17,06,37,8.80
2010,05,17,06,38,8.80
2010,05,17,06,39,8.80
2010,05,17,06,40,8.90
2010,05,17,06,41,8.90
2010,05,17,06,42,8.90
2010,05,17,06,43,8.90
2010,05,17,06,44,9.00
2010,05,17,06,45,9.00
2010,05,17,06,46,9.00
2010,05,17,06,47,9.00
2010,05,17,06,48,9.00
2010,05,17,06,49,9.10
2010,05,17,06,50,9.10
2010,05,17,06,51,9.10
2010,05,17,06,52,9.10
2010,05,17,06,53,9.10
2010,05,17,06,54,9.10
2010,05,17,06,55,9.20
2010,05,17,06,56,9.20
2010,05,17,06,57,9.20
2010,05,17,06,58,9.20
2010,05,17,06,59,9.30
2010,05,17,07,00,9.30
2010,05,17,07,01,9.30
2010,05,17,07,02,9.40
2010,05,17,07,03,9.40
2010,05,17,07,04,9.50
2010,05,17,07,05,9.50
2010,05,17,07,06,9.60
2010,05,17,07,07,9.60
2010,05,17,07,08,9.70
2010,05,17,07,09,9.70
2010,05,17,07,10,9.80
2010,05,17,07,11,9.80
2010,05,17,07,12,9.90
2010,05,17,07,13,9.90
2010,05,17,07,14,10.00
2010,05,17,07,15,10.00
2010,05,17,07,16,10.10
2010,05,17,07,17,10.20
2010,05,17,07,18,10.20
2010,05,17,07,19,10.30
2010,05,17,07,20,10.30
2010,05,17,07,21,10.40
2010,05,17,07,22,10.50
2010,05,17,07,23,10.60
2010,05,17,07,24,10.60
2010,05,17,07,25,10.70
2010,05,17,07,26,10.80
2010,05,17,07,27,10.80
2010,05,17,07,28,10.90
2010,05,17,07,29,10.90
2010,05,17,07,30,11.00
2010,05,17,07,31,11.10
2010,05,17,07,32,11.10
2010,05,17,07,33,11.20
2010,05,17,07,34,11.20
2010,05,17,07,35,11.30
2010,05,17,07,36,11.40
2010,05,17,07,37,11.40
2010,05,17,07,38,11.50
2010,05,17,07,39,11.60
2010,05,17,07,40,11.60
2010,05,17,07,41,11.70
2010,05,17,07,42,11.70
2010,05,17,07,43,11.80
2010,05,17,07,44,11.90
2010,05,17,07,45,11.90
2010,05,17,07,46,12.00
2010,05,17,07,47,12.10
2010,05,17,07,48,12.10
2010,05,17,07,49,12.20
2010,05,17,07,50,12.20
2010,05,17,07,51,12.20
2010,05,17,07,52,12.30
2010,05,17,07,53,12.30
2010,05,17,07,54,12.30
2010,05,17,07,55,12.40
2010,05,17,07,56,12.40
2010,05,17,07,57,12.50
2010,05,17,07,58,12.60
2010,05,17,07,59,12.60
2010,05,17,08,00,12.70
2010,05,17,08,01,12.70
2010,05,17,08,02,12.80
2010,05,17,08,03,12.80
2010,05,17,08,04,12.90
2010,05,17,08,05,13.00
2010,05,17,08,06,13.00
2010,05,17,08,07,13.10
2010,05,17,08,08,13.10
2010,05,17,08,09,13.20
2010,05,17,08,10,13.30
2010,05,17,08,11,13.30
2010,05,17,08,12,13.30
2010,05,17,08,13,13.40
2010,05,17,08,14,13.40
2010,05,17,08,15,13.40
2010,05,17,08,16,13.50
2010,05,17,08,17,13.60
2010,05,17,08,18,13.60
2010,05,17,08,19,13.60
2010,05,17,08,20,13.70
2010,05,17,08,21,13.70
2010,05,17,08,22,13.70
2010,05,17,08,23,13.80
2010,05,17,08,24,13.80
2010,05,17,08,25,13.80
2010,05,17,08,26,13.80
2010,05,17,08,27,13.80
2010,05,17,08,28,13.90
2010,05,17,08,29,13.90
2010,05,17,08,30,13.90
2010,05,17,08,31,13.90
2010,05,17,08,32,14.00
2010,05,17,08,33,14.00
2010,05,17,08,34,14.00
2010,05,17,08,35,14.00
2010,05,17,08,36,14.10
2010,05,17,08,37,14.10
2010,05,17,08,38,14.10
2010,05,17,08,39,14.20
2010,05,17,08,40,14.20
2010,05,17,08,41,14.20
2010,05,17,08,42,14.30
2010,05,17,08,43,14.30
2010,05,17,08,44,14.30
2010,05,17,08,45,14.40
2010,05,17,08,46,14.40
2010,05,17,08,47,14.40
2010,05,17,08,48,14.50
2010,05,17,08,49,14.50
2010,05,17,08,50,14.50
2010,05,17,08,51,14.50
2010,05,17,08,52,14.50
2010,05,17,08,53,14.60
2010,05,17,08,54,14.60
2010,05,17,08,55,14.60
2010,05,17,08,56,14.60
2010,05,17,08,57,14.70
2010,05,17,08,58,14.70
2010,05,17,08,59,14.70
2010,05,17,09,00,14.80
2010,05,17,09,01,14.90
2010,05,17,09,02,14.90
2010,05,17,09,03,15.00
2010,05,17,09,04,15.10
2010,05,17,09,05,15.20
2010,05,17,09,06,15.20
2010,05,17,09,07,15.30
2010,05,17,09,08,15.30
2010,05,17,09,09,15.30
2010,05,17,09,10,15.40
2010,05,17,09,11,15.40
2010,05,17,09,12,15.40
2010,05,17,09,13,15.50
2010,05,17,09,14,15.50
2010,05,17,09,15,15.60
2010,05,17,09,16,15.60
2010,05,17,09,17,15.70
2010,05,17,09,18,15.70
2010,05,17,09,19,15.70
2010,05,17,09,20,15.80
2010,05,17,09,21,15.80
2010,05,17,09,22,15.80
2010,05,17,09,23,15.80
2010,05,17,09,24,15.90
2010,05,17,09,25,15.90
2010,05,17,09,26,16.00
2010,05,17,09,27,16.00
2010,05,17,09,28,16.10
2010,05,17,09,29,16.10
2010,05,17,09,30,16.10
2010,05,17,09,31,16.10
2010,05,17,09,32,16.10
2010,05,17,09,33,16.10
2010,05,17,09,34,16.10
2010,05,17,09,35,16.20
2010,05,17,09,36,16.20
2010,05,17,09,37,16.20
2010,05,17,09,38,16.20
2010,05,17,09,39,16.20
2010,05,17,09,40,16.20
2010,05,17,09,41,16.20
2010,05,17,09,42,16.30
2010,05,17,09,43,16.30
2010,05,17,09,44,16.30
2010,05,17,09,45,16.30
2010,05,17,09,46,16.40
2010,05,17,09,47,16.40
2010,05,17,09,48,16.40
2010,05,17,09,49,16.40
2010,05,17,09,50,16.40
2010,05,17,09,51,16.50
2010,05,17,09,52,16.50
2010,05,17,09,53,16.50
2010,05,17,09,54,16.60
2010,05,17,09,55,16.60
2010,05,17,09,56,16.70
2010,05,17,09,57,16.70
2010,05,17,09,58,16.80
2010,05,17,09,59,16.90
2010,05,17,10,00,17.00
2010,05,17,10,01,17.10
2010,05,17,10,02,17.20
2010,05,17,10,03,17.30
2010,05,17,10,04,17.30
2010,05,17,10,05,17.30
2010,05,17,10,06,17.40
2010,05,17,10,07,17.40
2010,05,17,10,08,17.50
2010,05,17,10,09,17.50
2010,05,17,10,10,17.50
2010,05,17,10,11,17.50
2010,05,17,10,12,17.40
2010,05,17,10,13,17.40
2010,05,17,10,14,17.40
2010,05,17,10,15,17.30
2010,05,17,10,16,17.30
2010,05,17,10,17,17.20
2010,05,17,10,18,17.20
2010,05,17,10,19,17.20
2010,05,17,10,20,17.20
2010,05,17,10,21,17.30
2010,05,17,10,22,17.30
2010,05,17,10,23,17.40
2010,05,17,10,24,17.40
2010,05,17,10,25,17.40
2010,05,17,10,26,17.40
2010,05,17,10,27,17.50
2010,05,17,10,28,17.50
2010,05,17,10,29,17.60
2010,05,17,10,30,17.70
2010,05,17,10,31,17.70
2010,05,17,10,32,17.80
2010,05,17,10,33,17.80
2010,05,17,10,34,17.80
2010,05,17,10,35,17.70
2010,05,17,10,36,17.70
2010,05,17,10,37,17.70
2010,05,17,10,38,17.70
2010,05,17,10,39,17.70
2010,05,17,10,40,17.70
2010,05,17,10,41,17.70
2010,05,17,10,42,17.70
2010,05,17,10,43,17.70
2010,05,17,10,44,17.70
2010,05,17,10,45,17.70
2010,05,17,10,46,17.80
2010,05,17,10,47,17.80
2010,05,17,10,48,17.80
2010,05,17,10,49,17.80
2010,05,17,10,50,17.70
2010,05,17,10,51,17.70
2010,05,17,10,52,17.70
2010,05,17,10,53,17.70
2010,05,17,10,54,17.70
2010,05,17,10,55,17.70
2010,05,17,10,56,17.70
2010,05,17,10,57,17.70
2010,05,17,10,58,17.70
2010,05,17,10,59,17.70
2010,05,17,11,00,17.80
2010,05,17,11,01,17.80
2010,05,17,11,02,17.80
2010,05,17,11,03,17.80
2010,05,17,11,04,17.80
2010,05,17,11,05,17.80
2010,05,17,11,06,17.90
2010,05,17,11,07,17.90
2010,05,17,11,08,17.90
2010,05,17,11,09,17.90
2010,05,17,11,10,18.00
2010,05,17,11,11,18.00
2010,05,17,11,12,18.00
2010,05,17,11,13,18.10
2010,05,17,11,14,18.20
2010,05,17,11,15,18.20
2010,05,17,11,16,18.20
2010,05,17,11,17,18.20
2010,05,17,11,18,18.20
2010,05,17,11,19,18.30
2010,05,17,11,20,18.30
2010,05,17,11,21,18.40
2010,05,17,11,22,18.40
2010,05,17,11,23,18.50
2010,05,17,11,24,18.60
2010,05,17,11,25,18.60
2010,05,17,11,26,18.70
2010,05,17,11,27,18.70
2010,05,17,11,28,18.70
2010,05,17,11,29,18.70
2010,05,17,11,30,18.70
2010,05,17,11,31,18.70
2010,05,17,11,32,18.70
2010,05,17,11,33,18.70
2010,05,17,11,34,18.70
2010,05,17,11,35,18.70
2010,05,17,11,36,18.70
2010,05,17,11,37,18.80
2010,05,17,11,38,18.80
2010,05,17,11,39,18.80
2010,05,17,11,40,18.80
2010,05,17,11,41,18.80
2010,05,17,11,42,18.80
2010,05,17,11,43,18.90
2010,05,17,11,44,18.90
2010,05,17,11,45,18.90
2010,05,17,11,46,18.90
2010,05,17,11,47,18.90
2010,05,17,11,48,18.80
2010,05,17,11,49,18.80
2010,05,17,11,50,18.80
2010,05,17,11,51,18.70
2010,05,17,11,52,18.70
2010,05,17,11,53,18.70
2010,05,17,11,54,18.60
2010,05,17,11,55,18.70
2010,05,17,11,56,18.70
2010,05,17,11,57,18.70
2010,05,17,11,58,18.60
2010,05,17,11,59,18.60
2010,05,17,12,00,18.60
2010,05,17,12,01,18.70
2010,05,17,12,02,18.70
2010,05,17,12,03,18.70
2010,05,17,12,04,18.80
2010,05,17,12,05,18.80
2010,05,17,12,06,18.90
2010,05,17,12,07,19.00
2010,05,17,12,08,19.10
2010,05,17,12,09,19.10
2010,05,17,12,10,19.10
2010,05,17,12,11,19.10
2010,05,17,12,12,19.10
2010,05,17,12,13,19.00
2010,05,17,12,14,18.90
2010,05,17,12,15,18.90
2010,05,17,12,16,18.90
2010,05,17,12,17,18.90
2010,05,17,12,18,18.90
2010,05,17,12,19,18.80
2010,05,17,12,20,18.80
2010,05,17,12,21,18.80
2010,05,17,12,22,18.80
2010,05,17,12,23,18.80
2010,05,17,12,24,18.80
2010,05,17,12,25,18.90
2010,05,17,12,26,18.90
2010,05,17,12,27,19.00
2010,05,17,12,28,19.10
2010,05,17,12,29,19.10
2010,05,17,12,30,19.20
2010,05,17,12,31,19.30
2010,05,17,12,32,19.40
2010,05,17,12,33,19.40
2010,05,17,12,34,19.50
2010,05,17,12,35,19.60
2010,05,17,12,36,19.70
2010,05,17,12,37,19.80
2010,05,17,12,38,19.80
2010,05,17,12,39,19.90
2010,05,17,12,40,20.00
2010,05,17,12,41,20.10
2010,05,17,12,42,20.10
2010,05,17,12,43,20.20
2010,05,17,12,44,20.10
2010,05,17,12,45,20.10
2010,05,17,12,46,20.10
2010,05,17,12,47,20.10
2010,05,17,12,48,20.20
2010,05,17,12,49,20.20
2010,05,17,12,50,20.30
2010,05,17,12,51,20.40
2010,05,17,12,52,20.50
2010,05,17,12,53,20.50
2010,05,17,12,54,20.60
2010,05,17,12,55,20.70
2010,05,17,12,56,20.80
2010,05,17,12,57,20.90
2010,05,17,12,58,21.00
2010,05,17,12,59,21.00
2010,05,17,13,00,20.90
2010,05,17,13,01,20.90
2010,05,17,13,02,20.90
2010,05,17,13,03,20.90
2010,05,17,13,04,20.80
2010,05,17,13,05,20.70
2010,05,17,13,06,20.60
2010,05,17,13,07,20.50
2010,05,17,13,08,20.40
2010,05,17,13,09,20.40
2010,05,17,13,10,20.40
2010,05,17,13,11,20.40
2010,05,17,13,12,20.50
2010,05,17,13,13,20.50
2010,05,17,13,14,20.60
2010,05,17,13,15,20.60
2010,05,17,13,16,20.70
2010,05,17,13,17,20.70
2010,05,17,13,18,20.80
2010,05,17,13,19,20.80
2010,05,17,13,20,20.80
2010,05,17,13,21,20.90
2010,05,17,13,22,20.90
2010,05,17,13,23,20.90
2010,05,17,13,24,20.90
2010,05,17,13,25,20.90
2010,05,17,13,26,20.80
2010,05,17,13,27,20.80
2010,05,17,13,28,20.70
2010,05,17,13,29,20.70
2010,05,17,13,30,20.70
2010,05,17,13,31,20.70
2010,05,17,13,32,20.60
2010,05,17,13,33,20.70
2010,05,17,13,34,20.70
2010,05,17,13,35,20.70
2010,05,17,13,36,20.70
2010,05,17,13,37,20.70
2010,05,17,13,38,20.70
2010,05,17,13,39,20.70
2010,05,17,13,40,20.70
2010,05,17,13,41,20.70
2010,05,17,13,42,20.70
2010,05,17,13,43,20.80
2010,05,17,13,44,20.80
2010,05,17,13,45,20.90
2010,05,17,13,46,20.90
2010,05,17,13,47,20.90
2010,05,17,13,48,21.00
2010,05,17,13,49,21.00
2010,05,17,13,50,21.00
2010,05,17,13,51,21.00
2010,05,17,13,52,21.00
2010,05,17,13,53,21.10
2010,05,17,13,54,21.10
2010,05,17,13,55,21.10
2010,05,17,13,56,21.20
2010,05,17,13,57,21.20
2010,05,17,13,58,21.20
2010,05,17,13,59,21.30
2010,05,17,14,00,21.40
2010,05,17,14,01,21.40
2010,05,17,14,02,21.50
2010,05,17,14,03,21.60
2010,05,17,14,04,21.70
2010,05,17,14,05,21.80
2010,05,17,14,06,21.80
2010,05,17,14,07,21.70
2010,05,17,14,08,21.70
2010,05,17,14,09,21.70
2010,05,17,14,10,21.70
2010,05,17,14,11,21.80
2010,05,17,14,12,21.80
2010,05,17,14,13,21.80
2010,05,17,14,14,21.80
2010,05,17,14,15,21.80
2010,05,17,14,16,21.70
2010,05,17,14,17,21.70
2010,05,17,14,18,21.70
2010,05,17,14,19,21.70
2010,05,17,14,20,21.70
2010,05,17,14,21,21.60
2010,05,17,14,22,21.60
2010,05,17,14,23,21.50
2010,05,17,14,24,21.40
2010,05,17,14,25,21.40
2010,05,17,14,26,21.30
2010,05,17,14,27,21.30
2010,05,17,14,28,21.30
2010,05,17,14,29,21.30
2010,05,17,14,30,21.20
2010,05,17,14,31,21.20
2010,05,17,14,32,21.10
2010,05,17,14,33,21.10
2010,05,17,14,34,21.20
2010,05,17,14,35,21.20
2010,05,17,14,36,21.20
2010,05,17,14,37,21.20
2010,05,17,14,38,21.20
2010,05,17,14,39,21.30
2010,05,17,14,40,21.20
2010,05,17,14,41,21.20
2010,05,17,14,42,21.20
2010,05,17,14,43,21.20
2010,05,17,14,44,21.20
2010,05,17,14,45,21.20
2010,05,17,14,46,21.10
2010,05,17,14,47,21.00
2010,05,17,14,48,21.00
2010,05,17,14,49,21.00
2010,05,17,14,50,20.90
2010,05,17,14,51,20.90
2010,05,17,14,52,20.90
2010,05,17,14,53,21.00
2010,05,17,14,54,21.00
2010,05,17,14,55,21.00
2010,05,17,14,56,21.00
2010,05,17,14,57,21.00
2010,05,17,14,58,21.00
2010,05,17,14,59,21.00
2010,05,17,15,00,20.90
2010,05,17,15,01,20.90
2010,05,17,15,02,20.80
2010,05,17,15,03,20.80
2010,05,17,15,04,20.90
2010,05,17,15,05,20.90
2010,05,17,15,06,20.90
2010,05,17,15,07,20.80
2010,05,17,15,08,20.70
2010,05,17,15,09,20.70
2010,05,17,15,10,20.60
2010,05,17,15,11,20.60
2010,05,17,15,12,20.50
2010,05,17,15,13,20.50
2010,05,17,15,14,20.40
2010,05,17,15,15,20.40
2010,05,17,15,16,20.40
2010,05,17,15,17,20.40
2010,05,17,15,18,20.40
2010,05,17,15,19,20.40
2010,05,17,15,20,20.40
2010,05,17,15,21,20.40
2010,05,17,15,22,20.50
2010,05,17,15,23,20.50
2010,05,17,15,24,20.50
2010,05,17,15,25,20.50
2010,05,17,15,26,20.50
2010,05,17,15,27,20.60
2010,05,17,15,28,20.50
2010,05,17,15,29,20.50
2010,05,17,15,30,20.50
2010,05,17,15,31,20.40
2010,05,17,15,32,20.40
2010,05,17,15,33,20.40
2010,05,17,15,34,20.40
2010,05,17,15,35,20.40
2010,05,17,15,36,20.40
2010,05,17,15,37,20.30
2010,05,17,15,38,20.30
2010,05,17,15,39,20.30
2010,05,17,15,40,20.30
2010,05,17,15,41,20.20
2010,05,17,15,42,20.20
2010,05,17,15,43,20.20
2010,05,17,15,44,20.20
2010,05,17,15,45,20.20
2010,05,17,15,46,20.20
2010,05,17,15,47,20.10
2010,05,17,15,48,20.10
2010,05,17,15,49,20.10
2010,05,17,15,50,20.10
2010,05,17,15,51,20.10
2010,05,17,15,52,20.00
2010,05,17,15,53,19.90
2010,05,17,15,54,19.90
2010,05,17,15,55,19.80
2010,05,17,15,56,19.80
2010,05,17,15,57,19.80
2010,05,17,15,58,19.70
2010,05,17,15,59,19.70
2010,05,17,16,00,19.70
2010,05,17,16,01,19.60
2010,05,17,16,02,19.60
2010,05,17,16,03,19.60
2010,05,17,16,04,19.60
2010,05,17,16,05,19.50
2010,05,17,16,06,19.50
2010,05,17,16,07,19.40
2010,05,17,16,08,19.30
2010,05,17,16,09,19.20
2010,05,17,16,10,19.20
2010,05,17,16,11,19.20
2010,05,17,16,12,19.10
2010,05,17,16,13,19.10
2010,05,17,16,14,19.10
2010,05,17,16,15,19.10
2010,05,17,16,16,19.10
2010,05,17,16,17,19.00
2010,05,17,16,18,19.00
2010,05,17,16,19,19.00
2010,05,17,16,20,19.00
2010,05,17,16,21,19.00
2010,05,17,16,22,19.00
2010,05,17,16,23,19.00
2010,05,17,16,24,19.00
2010,05,17,16,25,19.00
2010,05,17,16,26,19.00
2010,05,17,16,27,19.00
2010,05,17,16,28,19.00
2010,05,17,16,29,19.00
2010,05,17,16,30,19.00
2010,05,17,16,31,19.00
2010,05,17,16,32,19.00
2010,05,17,16,33,19.00
2010,05,17,16,34,18.90
2010,05,17,16,35,18.90
2010,05,17,16,36,18.80
2010,05,17,16,37,18.80
2010,05,17,16,38,18.80
2010,05,17,16,39,18.70
2010,05,17,16,40,18.80
2010,05,17,16,41,18.80
2010,05,17,16,42,18.70
2010,05,17,16,43,18.70
2010,05,17,16,44,18.70
2010,05,17,16,45,18.70
2010,05,17,16,46,18.70
2010,05,17,16,47,18.70
2010,05,17,16,48,18.70
2010,05,17,16,49,18.70
2010,05,17,16,50,18.70
2010,05,17,16,51,18.70
2010,05,17,16,52,18.70
2010,05,17,16,53,18.60
2010,05,17,16,54,18.60
2010,05,17,16,55,18.50
2010,05,17,16,56,18.50
2010,05,17,16,57,18.40
2010,05,17,16,58,18.30
2010,05,17,16,59,18.30
2010,05,17,17,00,18.20
2010,05,17,17,01,18.20
2010,05,17,17,02,18.20
2010,05,17,17,03,18.10
2010,05,17,17,04,18.10
2010,05,17,17,05,18.10
2010,05,17,17,06,18.10
2010,05,17,17,07,18.10
2010,05,17,17,08,18.10
2010,05,17,17,09,18.10
2010,05,17,17,10,18.10
2010,05,17,17,11,18.10
2010,05,17,17,12,18.10
2010,05,17,17,13,18.10
2010,05,17,17,14,18.10
2010,05,17,17,15,18.10
2010,05,17,17,16,18.10
2010,05,17,17,17,18.10
2010,05,17,17,18,18.10
2010,05,17,17,19,18.10
2010,05,17,17,20,18.10
2010,05,17,17,21,18.10
2010,05,17,17,22,18.10
2010,05,17,17,23,18.10
2010,05,17,17,24,18.20
2010,05,17,17,25,18.20
2010,05,17,17,26,18.20
2010,05,17,17,27,18.20
2010,05,17,17,28,18.20
2010,05,17,17,29,18.20
2010,05,17,17,30,18.20
2010,05,17,17,31,18.10
2010,05,17,17,32,18.10
2010,05,17,17,33,18.10
2010,05,17,17,34,18.00
2010,05,17,17,35,18.00
2010,05,17,17,36,18.00
2010,05,17,17,37,17.90
2010,05,17,17,38,17.90